IRIDIUM 84

Last updated on Wed Nov 29 2017 00:19:03 GMT+0000 (Coordinated Universal Time)

1 25530U 98066D 17332.37994062 .00000164 00000-0 51605-4 0 9992 2 25530 86.3945 281.2864 0002078 84.0612 276.0821 14.34219001 530
UTC large
Height (km)
Speed (km/s)
/
Latitude / Longitude
Inclination (degrees)
Orbital Period (minutes)
Azimuth
Elevation
Range (km)
Doppler Factor

Next 0 passes for location: London (51.5072 / 0.1276)

Sorry there are no passes over London.